Peoria, IL

10:00 AM CDT on April 28, 2017 (GMT -0500)
Greater Peoria Regional

Weather History for KPIA - August, 2012

Change the Weather History Date:

Tuesday, August 14, 2012

  Actual Average Record
Temperature  
Mean Temperature 70 °F 74 °F  
Max Temperature 84 °F 84 °F 99 °F (1936)
Min Temperature 56 °F 64 °F 47 °F (2004)
Degree Days  
Heating Degree Days 0 0  
Month to date heating degree days 0 0  
Since 1 June heating degree days 10 19  
Since 1 July heating degree days 0 1  
Cooling Degree Days 5 9  
Month to date cooling degree days 134 135  
Year to date cooling degree days 1135 766  
Since 1 June cooling degree days 942 685  
Growing Degree Days 20 (Base 50)    
Moisture  
Dew Point 57 °F    
Average Humidity 69    
Maximum Humidity 100    
Minimum Humidity 37    
Precipitation  
Precipitation 0.00 in 0.11 in 1.93 in (1980)
Month to date precipitation 0.97 1.46  
Year to date precipitation 14.09 23.17  
Snow  
Snow 0.00 in 0.00 in 0.00 in ()
Month to date snowfall 0.0 0.0  
Since 1 June snowfall 0.0 0.0  
Since 1 July snowfall 0.0 0.0  
Snow Depth 0.00 in    
Sea Level Pressure  
Sea Level Pressure 29.95 in    
Wind  
Wind Speed 2 mph (WNW)    
Max Wind Speed 12 mph    
Max Gust Speed 15 mph    
Visibility 6 miles    
Events Fog    
T = Trace of Precipitation, MM = Missing Value Source: NWS Daily Summary

Daily Weather History Graph

Daily Weather History Graph

Search for Another Location

Airport or City:

Trip Planner

Search our weather history database for the weather conditions in past years. The results will help you decide how hot, cold, wet, or windy it might be!

Date:

Astronomy

Aug. 14, 2012 Rise Set
Actual Time 6:08 AM CDT 7:57 PM CDT
Civil Twilight 5:39 AM CDT 8:26 PM CDT
Nautical Twilight 5:03 AM CDT 9:02 PM CDT
Astronomical Twilight 4:25 AM CDT 9:40 PM CDT
Moon 3:06 AM CDT (8/14) 5:52 PM CDT (8/14)
Length of Visible Light 14h 47m
Length of Day
13h 48m
Waning Crescent, 9% of the Moon is Illuminated
Aug 14
Waning Crescent
Aug 17
New
Aug 24
First Quarter
Aug 31
Full
Sep 8
Last Quarter

Hourly Weather History & Observations

Time (CDT) Temp. Heat Index Dew Point Humidity Pressure Visibility Wind Dir Wind Speed Gust Speed Precip Events Conditions
12:32 AM 59.0 °F - 57.2 °F 94% 29.98 in 2.5 mi Calm Calm - N/A   Clear
12:46 AM 59.0 °F - 57.2 °F 94% 29.98 in 1.5 mi Calm Calm - N/A   Clear
12:54 AM 60.1 °F - 59.0 °F 96% 29.98 in 2.0 mi Calm Calm - N/A   Clear
1:02 AM 60.8 °F - 57.2 °F 88% 29.98 in 3.0 mi Calm Calm - N/A   Clear
1:38 AM 59.0 °F - 57.2 °F 94% 29.97 in 2.0 mi Calm Calm - N/A   Partly Cloudy
1:42 AM 59.0 °F - 57.2 °F 94% 29.97 in 1.2 mi Calm Calm - N/A   Scattered Clouds
1:45 AM 59.0 °F - 57.2 °F 94% 29.97 in 0.8 mi Calm Calm - N/A   Mist
1:54 AM 59.0 °F - 57.9 °F 96% 29.96 in 0.5 mi Calm Calm - N/A Fog Fog
2:13 AM 57.2 °F - 57.2 °F 100% 29.96 in 1.5 mi Calm Calm - N/A   Partly Cloudy
2:21 AM 57.2 °F - 57.2 °F 100% 29.96 in 2.5 mi Calm Calm - N/A   Clear
2:33 AM 57.2 °F - 57.2 °F 100% 29.96 in 2.5 mi Calm Calm - N/A   Partly Cloudy
2:40 AM 57.2 °F - 57.2 °F 100% 29.96 in 1.2 mi Calm Calm - N/A   Scattered Clouds
2:43 AM 57.2 °F - 57.2 °F 100% 29.96 in 0.8 mi Calm Calm - N/A   Mist
2:54 AM 57.0 °F - 57.0 °F 100% 29.95 in 0.2 mi Calm Calm - N/A Fog Fog
3:02 AM 57.2 °F - 57.2 °F 100% 29.95 in 0.5 mi Calm Calm - N/A Fog Fog
3:13 AM 57.2 °F - 57.2 °F 100% 29.95 in 0.5 mi Calm Calm - N/A Fog Fog
3:21 AM 57.2 °F - 55.4 °F 94% 29.95 in 1.0 mi Calm Calm - N/A   Mist
3:25 AM 57.2 °F - 55.4 °F 94% 29.95 in 2.0 mi Calm Calm - N/A   Scattered Clouds
3:34 AM 57.2 °F - 55.4 °F 94% 29.95 in 3.0 mi Calm Calm - N/A   Partly Cloudy
3:54 AM 57.0 °F - 55.9 °F 96% 29.96 in 4.0 mi Calm Calm - N/A   Clear
4:54 AM 57.0 °F - 55.9 °F 96% 29.97 in 4.0 mi Calm Calm - N/A   Clear
5:54 AM 57.9 °F - 55.9 °F 93% 29.97 in 4.0 mi Calm Calm - N/A   Clear
6:54 AM 57.9 °F - 57.0 °F 97% 29.98 in 4.0 mi Calm Calm - N/A   Clear
7:54 AM 62.1 °F - 59.0 °F 90% 29.99 in 6.0 mi Calm Calm - N/A   Clear
8:54 AM 66.0 °F - 60.1 °F 81% 29.98 in 10.0 mi Calm Calm - N/A   Clear
9:54 AM 72.0 °F - 61.0 °F 68% 29.99 in 10.0 mi SW 3.5 mph - N/A   Clear
10:54 AM 75.9 °F - 60.1 °F 58% 29.99 in 10.0 mi Calm Calm - N/A   Clear
11:54 AM 80.1 °F 80.6 °F 57.9 °F 47% 29.96 in 10.0 mi WNW 5.8 mph - N/A   Mostly Cloudy
12:54 PM 82.0 °F 82.0 °F 57.9 °F 44% 29.95 in 10.0 mi Variable 4.6 mph - N/A   Scattered Clouds
1:54 PM 82.0 °F 81.3 °F 54.0 °F 38% 29.94 in 10.0 mi North 5.8 mph - N/A   Clear
2:54 PM 82.0 °F 81.3 °F 54.0 °F 38% 29.93 in 10.0 mi Variable 3.5 mph - N/A   Clear
3:54 PM 82.9 °F 81.8 °F 53.1 °F 36% 29.92 in 10.0 mi NW 8.1 mph - N/A   Clear
4:54 PM 82.0 °F 81.3 °F 54.0 °F 38% 29.91 in 10.0 mi WNW 5.8 mph - N/A   Partly Cloudy
5:54 PM 82.0 °F 81.4 °F 55.0 °F 39% 29.92 in 10.0 mi WNW 5.8 mph - N/A   Partly Cloudy
6:54 PM 79.0 °F - 55.9 °F 45% 29.92 in 10.0 mi WNW 4.6 mph - N/A   Clear
7:54 PM 73.0 °F - 57.9 °F 59% 29.91 in 10.0 mi Calm Calm - N/A   Clear
8:54 PM 69.1 °F - 57.9 °F 68% 29.92 in 10.0 mi Calm Calm - N/A   Clear
9:54 PM 66.9 °F - 59.0 °F 76% 29.92 in 10.0 mi Calm Calm - N/A   Clear
10:54 PM 66.0 °F - 59.0 °F 78% 29.92 in 10.0 mi Calm Calm - N/A   Clear
11:54 PM 64.9 °F - 59.0 °F 81% 29.92 in 10.0 mi Calm Calm - N/A   Clear